Fort Myers, FL

9:48 PM EST on November 22, 2017 (GMT -0500)
Page

Weather History for KFMY - January, 2015

Change the Weather History Date:

Friday, January 9, 2015

  Actual Average Record
Temperature  
Mean Temperature 63 °F 64 °F  
Max Temperature 72 °F 74 °F 88 °F (2013)
Min Temperature 53 °F 54 °F 32 °F (1958)
Degree Days  
Heating Degree Days 2 4  
Month to date heating degree days 10 36  
Since 1 July heating degree days 99 129  
Cooling Degree Days 0 3  
Month to date cooling degree days 55 27  
Year to date cooling degree days 55 27  
Growing Degree Days 12 (Base 50)    
Moisture  
Dew Point 51 °F    
Average Humidity 74    
Maximum Humidity 83    
Minimum Humidity 61    
Precipitation  
Precipitation 0.00 in 0.07 in 2.01 in (1961)
Month to date precipitation T 0.57  
Year to date precipitation T 0.57  
Sea Level Pressure  
Sea Level Pressure 30.24 in    
Wind  
Wind Speed 7 mph (NNE)    
Max Wind Speed 17 mph    
Max Gust Speed 21 mph    
Visibility 10 miles    
Events      
T = Trace of Precipitation, MM = Missing Value Source: NWS Daily Summary

Daily Weather History Graph

Daily Weather History Graph

Search for Another Location

Airport or City:

Trip Planner

Search our weather history database for the weather conditions in past years. The results will help you decide how hot, cold, wet, or windy it might be!

Date:

Astronomy

Jan. 09, 2015 Rise Set
Actual Time 7:17 AM EST 5:51 PM EST
Civil Twilight 6:52 AM EST 6:17 PM EST
Nautical Twilight 6:23 AM EST 6:45 PM EST
Astronomical Twilight 5:55 AM EST 7:13 PM EST
Moon 9:58 PM EST (1/9) 9:56 AM EST (1/9)
Length of Visible Light 11h 24m
Length of Day
10h 34m
Waning Gibbous, 82% of the Moon is Illuminated
Jan 9
Waning Gibbous
Jan 13
Last Quarter
Jan 20
New
Jan 26
First Quarter
Feb 3
Full

Hourly Weather History & Observations

Time (EST) Temp. Dew Point Humidity Pressure Visibility Wind Dir Wind Speed Gust Speed Precip Events Conditions
12:53 AM 53.1 °F 46.9 °F 80% 30.23 in 10.0 mi NE 4.6 mph - N/A   Partly Cloudy
1:53 AM 53.1 °F 46.9 °F 80% 30.22 in 10.0 mi Calm Calm - N/A   Scattered Clouds
2:53 AM 54.0 °F 48.0 °F 80% 30.21 in 10.0 mi NNE 5.8 mph - N/A   Mostly Cloudy
3:53 AM 53.1 °F 48.0 °F 83% 30.21 in 10.0 mi NE 4.6 mph - N/A   Scattered Clouds
4:53 AM 54.0 °F 48.0 °F 80% 30.21 in 10.0 mi NE 6.9 mph - N/A   Mostly Cloudy
5:53 AM 53.1 °F 48.0 °F 83% 30.21 in 10.0 mi ENE 4.6 mph - N/A   Mostly Cloudy
6:53 AM 55.0 °F 48.9 °F 80% 30.23 in 10.0 mi NNE 5.8 mph - N/A   Mostly Cloudy
7:53 AM 55.0 °F 48.9 °F 80% 30.24 in 10.0 mi NNE 5.8 mph - N/A   Scattered Clouds
8:53 AM 57.0 °F 50.0 °F 77% 30.26 in 10.0 mi NNE 4.6 mph - N/A   Overcast
9:53 AM 59.0 °F 51.1 °F 75% 30.28 in 10.0 mi North 4.6 mph - N/A   Overcast
10:53 AM 63.0 °F 53.1 °F 70% 30.26 in 10.0 mi Variable 4.6 mph - N/A   Overcast
11:48 AM 66.2 °F 53.6 °F 64% 30.22 in 10.0 mi NNE 4.6 mph - N/A   Mostly Cloudy
11:49 AM 66.2 °F 55.4 °F 68% 30.22 in 10.0 mi NNE 3.5 mph - N/A   Mostly Cloudy
11:53 AM 66.9 °F 55.0 °F 66% 30.23 in 10.0 mi Variable 3.5 mph - N/A   Mostly Cloudy
12:53 PM 66.9 °F 55.0 °F 66% 30.21 in 10.0 mi NNW 6.9 mph - N/A   Overcast
1:53 PM 70.0 °F 55.9 °F 61% 30.19 in 10.0 mi NW 9.2 mph - N/A   Mostly Cloudy
2:53 PM 68.0 °F 55.0 °F 63% 30.19 in 10.0 mi NW 8.1 mph - N/A   Mostly Cloudy
3:53 PM 69.1 °F 55.9 °F 63% 30.19 in 10.0 mi NW 11.5 mph - N/A   Scattered Clouds
4:53 PM 66.9 °F 55.9 °F 68% 30.20 in 10.0 mi North 12.7 mph - N/A   Overcast
5:53 PM 64.0 °F 54.0 °F 70% 30.22 in 10.0 mi North 10.4 mph - N/A   Overcast
6:53 PM 62.1 °F 53.1 °F 72% 30.25 in 10.0 mi North 8.1 mph - N/A   Partly Cloudy
7:53 PM 60.1 °F 52.0 °F 75% 30.28 in 10.0 mi North 9.2 mph - N/A   Clear
8:53 PM 59.0 °F 52.0 °F 78% 30.29 in 10.0 mi NNE 13.8 mph - N/A   Mostly Cloudy
9:53 PM 57.0 °F 50.0 °F 77% 30.29 in 10.0 mi NNE 8.1 mph - N/A   Clear
10:53 PM 55.9 °F 48.9 °F 77% 30.29 in 10.0 mi NNE 10.4 mph - N/A   Mostly Cloudy
11:53 PM 54.0 °F 46.9 °F 77% 30.29 in 10.0 mi NNE 11.5 mph - N/A   Clear